DW7426 Weather Reports


time (UTC)temp
C
wind
direction
speed
KPH
gust
KPH
rain 1hr
cm
rain 24hr
cm
rain mn
cm
humidity
%
barometer
mb
20260906215912 32 139 11.3 20.9 0.00 0.00 0.00 90 1019.8
20260906215408 31 161 11.3 19.3 0.00 0.00 0.00 90 1019.7
20260906214906 31 152 6.4 12.9 0.00 0.00 0.00 90 1020.3
20260906214405 31 198 12.9 22.5 0.00 0.00 0.00 90 1020.4
20260906213904 31 153 9.7 32.2 0.00 0.00 0.00 90 1020.5
20260906213359 32 131 17.7 24.1 0.00 0.00 0.00 90 1020.4
20260906212856 31 155 16.1 35.4 0.00 0.00 0.00 90 1020.5
20260906212352 31 148 16.1 29.0 0.00 0.00 0.00 90 1020.8
20260906211851 31 109 11.3 22.5 0.00 0.00 0.00 90 1020.9
20260906211347 31 137 16.1 25.7 0.00 0.00 0.00 90 1020.9
20260906210842 31 105 8.0 17.7 0.00 0.00 0.00 90 1020.9
20260906210337 30 156 14.5 25.7 0.00 0.00 0.00 90 1020.8
20260906205832 30 147 19.3 24.1 0.00 0.00 0.00 90 1020.9
20260906205328 31 159 14.5 24.1 0.00 0.00 0.00 90 1021.2
20260906204824 31 125 6.4 17.7 0.00 0.00 0.00 90 1021.1
20260906204323 31 154 17.7 22.5 0.00 0.00 0.00 90 1021.4
20260906203822 31 138 16.1 30.6 0.00 0.00 0.00 90 1021.2
20260906203318 31 148 8.0 24.1 0.00 0.00 0.00 90 1021.2
20260906202815 31 148 3.2 24.1 0.00 0.00 0.00 90 1021.2
20260906202314 31 134 20.9 25.7 0.00 0.00 0.00 90 1021.2
20260906201809 32 107 19.3 29.0 0.00 0.00 0.00 90 1021.0
20260906201308 31 140 14.5 24.1 0.00 0.00 0.00 90 1020.9
20260906200804 32 126 12.9 17.7 0.00 0.00 0.00 90 1021.0
20260906200300 32 144 8.0 25.7 0.00 0.00 0.00 90 1021.0
20260906195755 32 124 6.4 17.7 0.00 0.00 0.00 90 1021.2
20260906195251 32 113 8.0 14.5 0.00 0.00 0.00 90 1021.1
20260906194747 31 111 6.4 24.1 0.00 0.00 0.00 90 1021.5
20260906194243 32 169 4.8 17.7 0.00 0.00 0.00 90 1021.7
20260906193737 31 74 3.2 14.5 0.00 0.00 0.00 90 1021.5
20260906193231 31 96 3.2 14.5 0.00 0.00 0.00 90 1022.0
20260906192728 31 168 11.3 20.9 0.00 0.00 0.00 90 1021.6
20260906192228 31 160 8.0 17.7 0.00 0.00 0.00 90 1021.8
20260906191721 31 121 4.8 14.5 0.00 0.00 0.00 90 1022.0
20260906191221 30 166 6.4 19.3 0.00 0.00 0.00 90 1022.2
20260906190716 30 164 11.3 14.5 0.00 0.00 0.00 90 1022.3
20260906190210 30 157 14.5 20.9 0.00 0.00 0.00 90 1022.3
20260906185710 30 166 4.8 17.7 0.00 0.00 0.00 90 1022.2
20260906185209 30 95 9.7 14.5 0.00 0.00 0.00 90 1022.7
20260906184703 30 120 9.7 11.3 0.00 0.00 0.00 90 1022.8
20260906184159 30 174 4.8 17.7 0.00 0.00 0.00 90 1022.9
20260906183655 29 78 0.0 16.1 0.00 0.00 0.00 90 1022.9
20260906183151 28 68 8.0 12.9 0.00 0.00 0.00 90 1023.1
20260906182650 28 131 8.0 8.0 0.00 0.00 0.00 90 1023.1
20260906182146 30 123 12.9 14.5 0.00 0.00 0.00 90 1023.0
20260906181642 28 67 8.0 14.5 0.00 0.00 0.00 90 1023.4
20260906181138 29 85 14.5 17.7 0.00 0.00 0.00 90 1023.4
20260906180632 28 127 8.0 11.3 0.00 0.00 0.00 90 1023.4
20260906180127 27 63 4.8 14.5 0.00 0.00 0.00 90 1023.5
20260906175625 28 90 3.2 12.9 0.00 0.00 0.00 90 1023.6
20260906175120 28 110 8.0 12.9 0.00 0.00 0.00 90 1023.6
20260906174618 27 205 4.8 12.9 0.00 0.00 0.00 90 1023.7
20260906174113 27 137 8.0 14.5 0.00 0.00 0.00 90 1023.8
20260906173608 27 154 4.8 11.3 0.00 0.00 0.00 90 1023.9
20260906173104 27 149 9.7 14.5 0.00 0.00 0.00 90 1024.1
20260906172558 27 79 4.8 14.5 0.00 0.00 0.00 90 1024.2
20260906172054 27 101 6.4 17.7 0.00 0.00 0.00 90 1023.9
20260906171553 26 159 6.4 14.5 0.00 0.00 0.00 90 1024.1
20260906171049 26 114 3.2 11.3 0.00 0.00 0.00 90 1024.1
20260906170544 26 148 9.7 11.3 0.00 0.00 0.00 90 1024.2
20260906170043 25 116 4.8 9.7 0.00 0.00 0.00 90 1024.5
20260906165541 25 179 9.7 16.1 0.00 0.00 0.00 90 1024.4
20260906165035 26 116 9.7 11.3 0.00 0.00 0.00 90 1024.3
20260906164534 25 100 6.4 11.3 0.00 0.00 0.00 90 1024.5
20260906164031 25 189 8.0 11.3 0.00 0.00 0.00 90 1024.4
20260906163526 24 178 4.8 9.7 0.00 0.00 0.00 90 1024.6
20260906163021 24 159 3.2 11.3 0.00 0.00 0.00 90 1024.4
20260906162518 23 160 0.0 8.0 0.00 0.00 0.00 90 1024.6
20260906162013 24 169 4.8 9.7 0.00 0.00 0.00 90 1024.5
20260906161508 23 180 0.0 9.7 0.00 0.00 0.00 90 1024.4
20260906161007 23 151 3.2 9.7 0.00 0.00 0.00 90 1024.5
20260906160501 22 167 8.0 11.3 0.00 0.00 0.00 90 1024.6
20260906155958 22 145 8.0 9.7 0.00 0.00 0.00 90 1024.8
20260906155457 22 148 6.4 11.3 0.00 0.00 0.00 90 1024.9
20260906154953 22 138 8.0 11.3 0.00 0.00 0.00 90 1024.5
20260906154449 22 108 6.4 12.9 0.00 0.00 0.00 90 1024.8
20260906153947 22 153 9.7 12.9 0.00 0.00 0.00 90 1024.5
20260906153446 22 190 3.2 8.0 0.00 0.00 0.00 90 1024.5
20260906152942 21 105 0.0 8.0 0.00 0.00 0.00 90 1024.6
20260906152441 22 174 1.6 6.4 0.00 0.00 0.00 90 1024.6
20260906151941 21 99 0.0 4.8 0.00 0.00 0.00 90 1024.6
20260906151436 21 105 3.2 8.0 0.00 0.00 0.00 90 1024.6
20260906150932 21 77 0.0 3.2 0.00 0.00 0.00 90 1024.8
20260906150427 21 117 0.0 6.4 0.00 0.00 0.00 90 1024.5
20260906145927 20 90 3.2 6.4 0.00 0.00 0.00 90 1024.8
20260906145426 20 325 1.6 4.8 0.00 0.00 0.00 90 1024.6
20260906144920 20 106 0.0 4.8 0.00 0.00 0.00 90 1025.0
20260906144415 20 90 1.6 3.2 0.00 0.00 0.00 90 1024.8
20260906143910 20 26 0.0 4.8 0.00 0.00 0.00 90 1024.9
20260906143406 19 37 0.0 6.4 0.00 0.00 0.00 90 1024.8
20260906142902 19 203 1.6 4.8 0.00 0.00 0.00 90 1024.8
20260906142355 18 66 4.8 8.0 0.00 0.00 0.00 90 1024.8
20260906141850 18 30 4.8 8.0 0.00 0.00 0.00 90 1024.9
20260906141344 18 29 0.0 4.8 0.00 0.00 0.00 90 1025.0
20260906140844 18 41 0.0 4.8 0.00 0.00 0.00 90 1025.0
20260906140339 18 307 0.0 4.8 0.00 0.00 0.00 90 1024.8
20260906135836 17 280 3.2 3.2 0.00 0.00 0.00 90 1025.0
20260906135331 17 339 3.2 3.2 0.00 0.00 0.00 90 1024.8
20260906134827 17 274 3.2 4.8 0.00 0.00 0.00 90 1025.0
20260906134322 17 346 0.0 1.6 0.00 0.00 0.00 90 1025.1
20260906133818 17 261 3.2 3.2 0.00 0.00 0.00 90 1025.0
20260906133313 16 336 0.0 3.2 0.00 0.00 0.00 90 1024.9
20260906132808 16 328 0.0 3.2 0.00 0.00 0.00 90 1024.9
20260906132306 15 254 1.6 3.2 0.00 0.00 0.00 90 1024.8
20260906131759 15 294 4.8 4.8 0.00 0.00 0.00 90 1024.9
20260906131254 15 285 1.6 1.6 0.00 0.00 0.00 90 1024.8
20260906130749 15 243 1.6 1.6 0.00 0.00 0.00 90 1024.6
20260906130244 15 261 0.0 0.0 0.00 0.00 0.00 90 1024.6
20260906125743 14 243 0.0 1.6 0.00 0.00 0.00 90 1024.5
20260906125241 14 261 0.0 1.6 0.00 0.00 0.00 90 1024.6
20260906124735 13 270 0.0 1.6 0.00 0.00 0.00 90 1024.5
20260906124231 13 215 0.0 3.2 0.00 0.00 0.00 90 1024.5
20260906123730 13 246 0.0 3.2 0.00 0.00 0.00 90 1024.4
20260906123226 14 246 0.0 3.2 0.00 0.00 0.00 90 1024.3
20260906122725 14 192 1.6 6.4 0.00 0.00 0.00 90 1024.5
20260906122220 14 194 1.6 4.8 0.00 0.00 0.00 90 1024.2
20260906121717 15 123 4.8 8.0 0.00 0.00 0.00 90 1024.3
20260906121213 16 121 9.7 12.9 0.00 0.00 0.00 90 1024.3
20260906120708 15 215 1.6 1.6 0.00 0.00 0.00 90 1023.7
20260906120205 15 240 0.0 1.6 0.00 0.00 0.00 90 1024.1
20260906115700 14 248 0.0 3.2 0.00 0.00 0.00 90 1023.6
20260906115155 14 257 0.0 3.2 0.00 0.00 0.00 90 1024.2
20260906114654 15 286 1.6 4.8 0.00 0.00 0.00 90 1023.8
20260906114150 15 243 0.0 0.0 0.00 0.00 0.00 90 1023.7
20260906113649 15 240 0.0 3.2 0.00 0.00 0.00 90 1024.2
20260906113144 16 345 0.0 3.2 0.00 0.00 0.00 90 1023.8
20260906112643 16 23 0.0 3.2 0.00 0.00 0.00 90 1024.1
20260906112141 17 320 3.2 3.2 0.00 0.00 0.00 90 1024.2
20260906111640 16 355 1.6 3.2 0.00 0.00 0.00 90 1023.8
20260906111134 16 344 0.0 4.8 0.00 0.00 0.00 90 1023.9
20260906110629 16 0 3.2 4.8 0.00 0.00 0.00 90 1024.1
20260906110124 16 45 3.2 3.2 0.00 0.00 0.00 90 1023.9
20260906105618 16 345 1.6 4.8 0.00 0.00 0.00 90 1023.9
20260906105115 15 36 3.2 6.4 0.00 0.00 0.00 90 1023.8
20260906104614 16 32 3.2 4.8 0.00 0.00 0.00 90 1023.9
20260906104108 16 37 3.2 6.4 0.00 0.00 0.00 90 1024.2
20260906103606 16 60 3.2 3.2 0.00 0.00 0.00 90 1024.2
20260906103102 16 96 0.0 3.2 0.00 0.00 0.00 90 1024.1
20260906102602 16 81 3.2 4.8 0.00 0.00 0.00 90 1024.2
20260906102056 16 4 3.2 4.8 0.00 0.00 0.00 90 1024.1
20260906101551 17 352 0.0 11.3 0.00 0.00 0.00 90 1023.8
20260906101045 17 255 3.2 6.4 0.00 0.00 0.00 90 1023.9
20260906100541 17 233 3.2 4.8 0.00 0.00 0.00 90 1024.1
20260906100036 17 294 8.0 8.0 0.00 0.00 0.00 90 1023.8
20260906095530 17 270 4.8 8.0 0.00 0.00 0.00 90 1023.8
20260906095026 16 305 4.8 9.7 0.00 0.00 0.00 90 1023.7
20260906094525 16 328 8.0 8.0 0.00 0.00 0.00 90 1023.7
20260906094021 15 289 4.8 6.4 0.00 0.00 0.00 90 1023.9
20260906093516 15 277 4.8 4.8 0.00 0.00 0.00 90 1024.1
20260906093016 16 260 3.2 3.2 0.00 0.00 0.00 90 1023.7
20260906092511 16 249 1.6 1.6 0.00 0.00 0.00 90 1023.9
20260906092006 16 334 0.0 3.2 0.00 0.00 0.00 90 1024.1
20260906091502 16 346 0.0 3.2 0.00 0.00 0.00 90 1024.3
20260906090959 16 354 1.6 4.8 0.00 0.00 0.00 90 1024.2
20260906090453 16 8 0.0 3.2 0.00 0.00 0.00 90 1024.1
20260906085953 16 81 0.0 4.8 0.00 0.00 0.00 90 1024.2
20260906085452 16 74 0.0 3.2 0.00 0.00 0.00 90 1023.8
20260906084951 16 195 3.2 4.8 0.00 0.00 0.00 90 1024.2
20260906084447 16 173 3.2 6.4 0.00 0.00 0.00 90 1024.2
20260906083945 16 143 6.4 11.3 0.00 0.00 0.00 90 1024.1
20260906083441 17 125 8.0 11.3 0.00 0.00 0.00 90 1023.9
20260906082940 17 115 16.1 16.1 0.00 0.00 0.00 90 1023.9
20260906082436 17 150 11.3 12.9 0.00 0.00 0.00 90 1023.7
20260906081931 18 93 14.5 16.1 0.00 0.00 0.00 90 1023.7
20260906081427 19 147 3.2 6.4 0.00 0.00 0.00 90 1023.5
20260906080923 19 186 1.6 3.2 0.00 0.00 0.00 90 1023.6
20260906080419 20 186 4.8 4.8 0.00 0.00 0.00 90 1023.7
20260906075918 20 180 4.8 4.8 0.00 0.00 0.00 90 1023.7
20260906075414 20 180 3.2 4.8 0.00 0.00 0.00 90 1023.8
20260906074909 20 199 9.7 12.9 0.00 0.00 0.00 90 1023.9
20260906074403 21 232 12.9 14.5 0.00 0.00 0.00 90 1023.7
20260906073901 21 236 14.5 16.1 0.00 0.00 0.00 90 1023.7
20260906073356 21 226 14.5 24.1 0.00 0.00 0.00 90 1023.7
20260906072853 21 233 14.5 20.9 0.00 0.00 0.00 90 1023.5
20260906072348 20 250 6.4 12.9 0.00 0.00 0.00 90 1023.9
20260906071844 21 279 8.0 14.5 0.00 0.00 0.00 90 1023.8
20260906071339 21 238 11.3 11.3 0.00 0.00 0.00 90 1023.8
20260906070836 20 266 8.0 11.3 0.00 0.00 0.00 90 1023.7
20260906070331 21 199 4.8 8.0 0.00 0.00 0.00 90 1023.7
20260906065826 22 231 3.2 6.4 0.00 0.00 0.00 90 1023.7
20260906065321 21 250 3.2 4.8 0.00 0.00 0.00 90 1023.6
20260906064817 21 241 3.2 6.4 0.00 0.00 0.00 90 1023.5
20260906064313 21 15 0.0 4.8 0.00 0.00 0.00 90 1023.9
20260906063807 21 310 4.8 6.4 0.00 0.00 0.00 90 1023.7
20260906063303 21 305 8.0 9.7 0.00 0.00 0.00 90 1023.6
20260906062757 20 304 6.4 8.0 0.00 0.00 0.00 90 1023.7
20260906062256 21 302 8.0 8.0 0.00 0.00 0.00 90 1023.6
20260906061752 21 99 6.4 8.0 0.00 0.00 0.00 90 1023.5
20260906061249 21 332 3.2 4.8 0.00 0.00 0.00 90 1023.7
20260906060743 22 97 4.8 9.7 0.00 0.00 0.00 90 1023.4
20260906060241 21 125 6.4 8.0 0.00 0.00 0.00 90 1023.6
20260906055736 21 103 3.2 6.4 0.00 0.00 0.00 90 1023.5
20260906055231 21 105 6.4 9.7 0.00 0.00 0.00 90 1023.7
20260906054727 21 123 3.2 4.8 0.00 0.00 0.00 90 1023.6
20260906054222 21 83 9.7 16.1 0.00 0.00 0.00 90 1023.6
20260906053719 24 189 9.7 24.1 0.00 0.00 0.00 90 1023.6
20260906053214 24 194 17.7 24.1 0.00 0.00 0.00 90 1023.7
20260906052709 22 234 4.8 8.0 0.00 0.00 0.00 90 1023.6
20260906052205 22 176 4.8 8.0 0.00 0.00 0.00 90 1023.6
20260906051702 22 152 3.2 9.7 0.00 0.00 0.00 90 1023.9
20260906051201 22 140 11.3 11.3 0.00 0.00 0.00 90 1023.7
20260906050657 22 139 14.5 16.1 0.00 0.00 0.00 90 1023.9
20260906050152 22 148 12.9 14.5 0.00 0.00 0.00 90 1024.1
20260906045650 22 172 8.0 12.9 0.00 0.00 0.00 90 1024.1
20260906045145 22 161 9.7 17.7 0.00 0.00 0.00 90 1024.2
20260906044641 22 152 11.3 20.9 0.00 0.00 0.00 90 1024.4
20260906044136 22 160 11.3 19.3 0.00 0.00 0.00 90 1024.2
20260906043633 22 147 6.4 11.3 0.00 0.00 0.00 90 1024.3
20260906043128 22 113 11.3 22.5 0.00 0.00 0.00 90 1024.2
20260906042627 23 90 14.5 17.7 0.00 0.00 0.00 90 1024.3
20260906042121 23 142 8.0 9.7 0.00 0.00 0.00 90 1024.2
20260906041617 24 147 8.0 16.1 0.00 0.00 0.00 90 1024.1
20260906041112 23 193 4.8 9.7 0.00 0.00 0.00 90 1024.2
20260906040608 24 197 6.4 11.3 0.00 0.00 0.00 90 1024.2
20260906035558 25 167 9.7 17.7 0.00 0.00 0.00 90 1024.2
20260906035053 25 179 8.0 16.1 0.00 0.00 0.00 90 1024.4
20260906034548 25 184 9.7 19.3 0.00 0.00 0.00 90 1024.1
20260906034043 24 172 11.3 14.5 0.00 0.00 0.00 90 1024.1
20260906033538 24 170 6.4 11.3 0.00 0.00 0.00 90 1024.3
20260906033033 24 168 6.4 14.5 0.00 0.00 0.00 90 1024.3
20260906032530 24 133 4.8 14.5 0.00 0.00 0.00 90 1024.1
20260906032025 24 173 9.7 14.5 0.00 0.00 0.00 90 1024.2
20260906031520 24 148 8.0 19.3 0.00 0.00 0.00 90 1024.1
20260906031016 24 163 9.7 12.9 0.00 0.00 0.00 90 1024.1
20260906030515 25 165 12.9 19.3 0.00 0.00 0.00 90 1024.2
20260906030015 25 162 11.3 20.9 0.00 0.00 0.00 90 1024.2
20260906025514 24 134 8.0 12.9 0.00 0.00 0.00 90 1024.1
20260906025012 24 143 8.0 9.7 0.00 0.00 0.00 90 1024.1
20260906024508 25 114 6.4 16.1 0.00 0.00 0.00 90 1023.7
20260906024008 25 113 4.8 11.3 0.00 0.00 0.00 90 1023.7
20260906023504 25 146 9.7 11.3 0.00 0.00 0.00 90 1023.9
20260906022959 26 153 8.0 24.1 0.00 0.00 0.00 90 1023.8
20260906022454 25 115 14.5 19.3 0.00 0.00 0.00 90 1023.6
20260906021949 25 247 3.2 4.8 0.00 0.00 0.00 90 1023.2
20260906021444 25 254 1.6 1.6 0.00 0.00 0.00 90 1023.4
20260906020938 25 261 0.0 1.6 0.00 0.00 0.00 90 1022.9
20260906020433 25 246 0.0 1.6 0.00 0.00 0.00 90 1023.0
20260906015927 25 254 3.2 3.2 0.00 0.00 0.00 90 1022.9
20260906015427 25 248 3.2 3.2 0.00 0.00 0.00 90 1023.1
20260906014926 26 276 3.2 4.8 0.00 0.00 0.00 90 1022.8
20260906014426 26 266 4.8 4.8 0.00 0.00 0.00 90 1022.7
20260906013922 27 270 3.2 4.8 0.00 0.00 0.00 90 1022.9
20260906013418 27 228 3.2 3.2 0.00 0.00 0.00 90 1022.7
20260906012914 27 148 0.0 4.8 0.00 0.00 0.00 90 1022.8
20260906012408 27 191 6.4 6.4 0.00 0.00 0.00 90 1022.7
20260906011907 27 240 0.0 1.6 0.00 0.00 0.00 90 1022.9
20260906011402 28 174 0.0 6.4 0.00 0.00 0.00 90 1022.9
20260906010858 28 202 4.8 6.4 0.00 0.00 0.00 90 1023.2
20260906010354 28 151 3.2 4.8 0.00 0.00 0.00 90 1022.9
20260906005850 28 133 4.8 8.0 0.00 0.00 0.00 90 1022.8
20260906005349 29 126 6.4 8.0 0.00 0.00 0.00 90 1023.0
20260906004847 29 128 6.4 12.9 0.00 0.00 0.00 90 1022.8
20260906004347 28 126 6.4 11.3 0.00 0.00 0.00 90 1022.8
20260906003842 29 126 0.0 11.3 0.00 0.00 0.00 90 1022.9
20260906003338 29 110 4.8 11.3 0.00 0.00 0.00 90 1022.8
20260906002833 29 113 8.0 9.7 0.00 0.00 0.00 90 1022.5
20260906002332 30 93 4.8 11.3 0.00 0.00 0.00 90 1022.7
20260906001828 29 123 6.4 11.3 0.00 0.00 0.00 90 1022.7
20260906001324 29 108 4.8 8.0 0.00 0.00 0.00 90 1022.7
20260906000819 30 103 8.0 9.7 0.00 0.00 0.00 90 1022.8
20260906000313 30 105 4.8 9.7 0.00 0.00 0.00 90 1022.7
20260905235808 30 115 8.0 12.9 0.00 0.00 0.00 90 1022.7
20260905235306 30 111 14.5 20.9 0.00 0.00 0.00 90 1022.3
20260905234758 30 120 9.7 17.7 0.00 0.00 0.00 90 1022.7
20260905234253 30 135 4.8 11.3 0.00 0.00 0.00 90 1022.5
20260905233748 30 116 8.0 17.7 0.00 0.00 0.00 90 1022.3
20260905233248 31 143 8.0 16.1 0.00 0.00 0.00 90 1022.5
20260905232747 31 97 9.7 17.7 0.00 0.00 0.00 90 1022.5
20260905232243 31 144 8.0 16.1 0.00 0.00 0.00 90 1022.5
20260905231739 32 128 6.4 14.5 0.00 0.00 0.00 90 1022.4
20260905231234 31 178 6.4 29.0 0.00 0.00 0.00 90 1022.5
20260905230731 31 127 8.0 20.9 0.00 0.00 0.00 90 1022.7
20260905230228 31 108 12.9 16.1 0.00 0.00 0.00 90 1022.4
20260905225728 31 69 6.4 11.3 0.00 0.00 0.00 90 1022.5
20260905225223 31 102 4.8 8.0 0.00 0.00 0.00 90 1022.5
20260905224722 31 102 4.8 20.9 0.00 0.00 0.00 90 1022.8
20260905224218 31 141 6.4 9.7 0.00 0.00 0.00 90 1022.5
20260905223714 31 188 1.6 12.9 0.00 0.00 0.00 90 1022.7
20260905223210 30 131 0.0 14.5 0.00 0.00 0.00 90 1022.5
20260905222706 30 173 6.4 11.3 0.00 0.00 0.00 90 1022.8
20260905222205 30 225 4.8 14.5 0.00 0.00 0.00 90 1022.9
20260905221701 30 143 11.3 12.9 0.00 0.00 0.00 90 1022.8
20260905221158 30 148 8.0 12.9 0.00 0.00 0.00 90 1022.8
20260905220653 30 143 16.1 24.1 0.00 0.00 0.00 90 1022.8
20260905220149 31 153 6.4 19.3 0.00 0.00 0.00 90 1023.0